Location: Baia Mare
(47.6567°N, 23.5850°E)
Time: 13:31:34
(UTC+03:00)

ISS - Pass Details

Date: 15 July 2019
Orbit: 409 x 418 km, 51.6° (Epoch: 21 July)

Event Time Altitude Azimuth Distance (km) Brightness Sun altitude
Exits shadow 01:47:44 19° 278° (W) 1,067 -1.7 -20.6°
Maximum altitude 01:49:52 48° 348° (NNW) 549 -2.8 -20.6°
Drops below altitude 10° 01:53:06 10° 64° (ENE) 1,481 -0.6 -20.6°
Sets 01:55:15 0° 70° (ENE) 2,343 0.4 -20.5°
